Hauptseite
METAR-TAF:

METAR-TAF

Flughäfen :

Fliegerhorst Büchel

Büchel, Deutschland

Breite: 50-10N, Länge: 007-04E, Höhe: 478 m

Beobachtung

Neuester Wetterbericht von vor 26 Minuten, um 04:00 UTC
Wind 6 kt aus West/Südwest
Temperatur 0°C
Luftfeuchtigkeit 80%
Luftdruck 1020 hPa
Sichtweite 10 km oder mehr
Aufgelockert bewölkt in der Höhe von 4700 ft

METAR: ETSB 250400Z 25006KT 9999 SCT047 00/M03 Q1020 BLU+

Zeit: 05:26 (04:26 UTC)


TAF: fehlend

Wetterbeobachtungen und Prognosen von mehr als 4000 Flughäfen (METAR und TAF Bericht).

Die verfügbaren Stationen werden durch gelbe und rote Markierungen auf der Karte dargestellt.

Führen Sie die Maus auf sie, um den Namen der Station zu sehen.

Darauf klicken, um die Beobachtung von Wetterbeobachtungen und Prognosen zu sehen.

Um die Karte zu ändern : klicken Sie auf den grünen Tasten mit einem schwarzen Kreuz Zum Vergrößern, auf den grünen Button mit einem Gedankenstrich zu verkleinern, oder auf die grünen Pfeile für benachbarte Karten.


METAR-TAF: